Regional Weather Roundup
Issued by NWS

Home | Current Version | Previous Version | Graphics & Text | Print | Product List | Glossary On
Versions: 1 2 3 4 5 6 7 8 9 10 11 12 13 14 15 16 17 18 19 20 21 22 23 24 25 26 27 28 29 30 31 32 33 34 35 36 37 38 39 40 41 42 43 44 45 46 47 48 49 50
000
ASUS43 KTOP 302008
RWRKS

WEATHER ROUNDUP FOR KANSAS
NATIONAL WEATHER SERVICE GOODLAND KS
300 PM CDT SAT APR 30 2016

NOTE:  "FAIR" INDICATES FEW OR NO CLOUDS BELOW 12,000 FEET WITH NO
SIGNIFICANT WEATHER AND/OR OBSTRUCTIONS TO VISIBILITY.

KSZ001>006-013>018-027>032-041>047-302100-
NORTHWEST KANSAS

CITY           SKY/WX    TMP DP  RH WIND       PRES   REMARKS
GOODLAND       CLOUDY    39  34  82 N20G26    29.85R WCI  29
HAYS           CLOUDY    52  36  54 NW16      29.81R
HILL CITY      CLOUDY    47  38  71 NW10      29.82R
RUSSELL        CLOUDY    52  42  69 W16G25    29.78S
$$

KSZ061>065-074>080-084>089-302100-
SOUTHWEST KANSAS

CITY           SKY/WX    TMP DP  RH WIND       PRES   REMARKS
DODGE CITY     CLOUDY    51  38  60 W16G23    29.85R
ELKHART          N/A     53  33  46 NW15        N/A
GARDEN CITY    CLOUDY    49  35  58 NW21      29.85R
GREAT BEND     CLOUDY    52  39  62 W14G20    29.81S
LIBERAL        PTSUNNY   55  39  54 NW21G28   29.88S
PRATT          CLOUDY    51  39  64 W17       29.83S
$$

KSZ066>073-081>083-090>101-302100-
SOUTHEAST KANSAS

CITY           SKY/WX    TMP DP  RH WIND       PRES   REMARKS
CHANUTE        SUNNY     66  51  58 W14       29.77S
COFFEYVILLE    MOSUNNY   66  52  60 SW13      29.78S
HUTCHINSON     CLOUDY    58  42  55 W17G26    29.80R
MEDICINE LODGE   N/A     59  42  53 W18G25    29.82S
NEWTON         PTSUNNY   61  43  51 W20G28    29.80R
PARSONS        MOSUNNY   64  53  67 NW7       29.79S
WICHITA INTL   MOSUNNY   63  45  51 W14G23    29.78S
WICHITA JABRA  MOSUNNY   62  46  55 W16G25    29.78S
WICHITA MCCONL SUNNY     62  45  54 W15       29.78S
WINFIELD       MOSUNNY   63  47  55 W14G23    29.80S
$$

KSZ007>012-019>026-033>040-048>060-102>105-302100-
NORTHEAST KANSAS

CITY           SKY/WX    TMP DP  RH WIND       PRES   REMARKS
CONCORDIA      CLOUDY    53  46  77 W12       29.76R
EMPORIA        MOSUNNY   62  48  60 W12G20    29.76R
LAWRENCE       MOSUNNY   66  52  60 W12G24    29.73S
MANHATTAN      PTSUNNY   62  47  57 W13       29.74R
MARYSVILLE     CLOUDY    57  50  77 W13       29.74R
OLATHE IND     MOSUNNY   65  51  60 W16       29.74R
OLATHE EXE     MOSUNNY   64  50  60 W13G22    29.73S
SALINA         CLOUDY    60  47  61 NW12      29.77R
TOPEKA BILLARD PTSUNNY   63  50  62 VRB7      29.73S
TOPEKA FORBES  MOSUNNY   66  50  56 W15       29.73S
$$




USA.gov is the U.S. government's official web portal to all federal, state and local government web resources and services.